QPF
0.16 0.05 0.13 0.15 0.09 0.04 0.02 0.02 0.03 0.03 0.00 0.00 0.00 0.00 0.00 0.00 0.00 0.00 0.00 0.00 0.00 0.00 0.00 0.00 0.00 0.00 0.00 0.00 0.00 0.00 0.00 0.00 0.00 0.00 0.00 0.00 0.00 0.00 0.00 0.02 0.13 0.01 0.00
0.06 0.02 0.08 0.11 0.08 0.07 0.06 0.04 0.06 0.05 0.03 0.00 0.00 0.00 0.00 0.00 0.00 0.00 0.00 0.00 0.00 0.00 0.00 0.00 0.00 0.00 0.00 0.00 0.00 0.00 0.00 0.00 0.03 0.02 0.00 0.01 0.00 0.00 0.02 0.07 0.13 0.01 0.02
0.00 0.00 0.01 0.06 0.12 0.15 0.04 0.05 0.03 0.02 0.02 0.00 0.00 0.00 0.00 0.00 0.00 0.00 0.00 0.00 0.00 0.00 0.00 0.00 0.00 0.00 0.00 0.00 0.00 0.00 0.00 0.03 0.03 0.02 0.01 0.04 0.00 0.02 0.03 0.02 0.02 0.08 0.02
0.00 0.00 0.00 0.04 0.08 0.09 0.03 0.04 0.02 0.02 0.00 0.00 0.00 0.00 0.00 0.00 0.00 0.00 0.00 0.00 0.00 0.00 0.00 0.00 0.00 0.00 0.00 0.00 0.01 0.00 0.00 0.01 0.03 0.00 0.01 0.00 0.00 0.00 0.04 0.04 0.03 0.09 0.06
0.00 0.00 0.00 0.04 0.08 0.06 0.02 0.03 0.01 0.01 0.00 0.00 0.00 0.00 0.00 0.00 0.00 0.00 0.00 0.00 0.00 0.00 0.00 0.00 0.00 0.00 0.00 0.00 0.02 0.01 0.00 0.00 0.00 0.06 0.00 0.01 0.04 0.00 0.01 0.01 0.03 0.03 0.07
0.00 0.00 0.00 0.00 0.03 0.01 0.00 0.00 0.00 0.00 0.00 0.00 0.00 0.00 0.00 0.00 0.00 0.00 0.00 0.00 0.00 0.00 0.00 0.00 0.00 0.00 0.00 0.00 0.03 0.01 0.00 0.00 0.03 0.10 0.01 0.00 0.02 0.00 0.00 0.00 0.04 0.01 0.02
0.00 0.00 0.00 0.00 0.00 0.00 0.00 0.00 0.00 0.00 0.00 0.00 0.00 0.00 0.00 0.00 0.00 0.00 0.00 0.00 0.00 0.00 0.03 0.02 0.01 0.00 0.00 0.00 0.00 0.00 0.00 0.00 0.10 0.04 0.04 0.02 0.00 0.00 0.00 0.00 0.00 0.00 0.02
0.00 0.00 0.00 0.01 0.01 0.01 0.00 0.00 0.00 0.00 0.00 0.00 0.00 0.00 0.00 0.00 0.00 0.00 0.00 0.00 0.00 0.01 0.06 0.01 0.00 0.00 0.00 0.00 0.00 0.00 0.00 0.01 0.07 0.01 0.02 0.04 0.05 0.00 0.00 0.00 0.00 0.00 0.00
0.00 0.00 0.00 0.00 0.00 0.02 0.00 0.00 0.00 0.00 0.00 0.00 0.00 0.00 0.00 0.00 0.00 0.00 0.00 0.00 0.01 0.03 0.05 0.00 0.00 0.00 0.00 0.00 0.00 0.00 0.00 0.00 0.00 0.00 0.01 0.07 0.04 0.00 0.00 0.00 0.00 0.00 0.00
0.00 0.00 0.00 0.00 0.00 0.01 0.00 0.00 0.00 0.01 0.00 0.00 0.00 0.00 0.00 0.00 0.00 0.01 0.01 0.04 0.00 0.00 0.00 0.00 0.00 0.00 0.00 0.00 0.00 0.00 0.00 0.00 0.01 0.01 0.03 0.03 0.07 0.05 0.00 0.00 0.00 0.00 0.00
0.00 0.00 0.00 0.00 0.05 0.03 0.00 0.01 0.00 0.00 0.00 0.00 0.00 0.00 0.00 0.00 0.00 0.01 0.01 0.01 0.00 0.00 0.00 0.00 0.00 0.00 0.00 0.00 0.00 0.00 0.00 0.00 0.00 0.00 0.01 0.00 0.00 0.10 0.05 0.00 0.00 0.00 0.00
0.00 0.00 0.00 0.00 0.00 0.00 0.00 0.00 0.00 0.00 0.00 0.00 0.00 0.00 0.00 0.00 0.00 0.00 0.00 0.00 0.00 0.00 0.00 0.00 0.00 0.00 0.00 0.00 0.00 0.00 0.00 0.00 0.00 0.00 0.00 0.00 0.00 0.02 0.18 0.14 0.01 0.03 0.00
0.00 0.00 0.00 0.00 0.01 0.00 0.01 0.00 0.00 0.00 0.00 0.00 0.00 0.00 0.00 0.00 0.00 0.00 0.01 0.00 0.00 0.00 0.03 0.00 0.00 0.00 0.00 0.00 0.00 0.00 0.00 0.00 0.00 0.00 0.01 0.00 0.00 0.00 0.00 0.16 0.04 0.01 0.00
0.00 0.00 0.00 0.00 0.00 0.00 0.01 0.00 0.00 0.00 0.00 0.00 0.00 0.00 0.00 0.00 0.00 0.00 0.00 0.00 0.00 0.00 0.00 0.00 0.00 0.00 0.00 0.00 0.00 0.00 0.00 0.00 0.00 0.00 0.01 0.00 0.00 0.00 0.01 0.01 0.16 0.10 0.00
0.00 0.00 0.00 0.00 0.00 0.00 0.00 0.00 0.00 0.00 0.00 0.00 0.00 0.00 0.00 0.00 0.02 0.02 0.03 0.00 0.00 0.00 0.00 0.00 0.00 0.00 0.00 0.00 0.00 0.00 0.00 0.00 0.00 0.00 0.00 0.00 0.00 0.00 0.01 0.01 0.01 0.06 0.03
0.00 0.00 0.00 0.00 0.00 0.00 0.00 0.00 0.00 0.00 0.00 0.00 0.00 0.00 0.00 0.00 0.05 0.01 0.01 0.00 0.00 0.00 0.00 0.00 0.00 0.00 0.00 0.00 0.00 0.00 0.00 0.00 0.00 0.00 0.00 0.00 0.00 0.00 0.00 0.05 0.01 0.03 0.06
0.00 0.00 0.00 0.00 0.00 0.00 0.01 0.01 0.00 0.00 0.00 0.00 0.00 0.00 0.00 0.01 0.01 0.00 0.02 0.00 0.00 0.01 0.00 0.00 0.01 0.00 0.00 0.00 0.00 0.00 0.00 0.00 0.00 0.00 0.00 0.00 0.00 0.00 0.01 0.03 0.06 0.05 0.03
0.00 0.00 0.00 0.00 0.00 0.00 0.01 0.01 0.00 0.00 0.00 0.00 0.00 0.00 0.00 0.00 0.00 0.00 0.01 0.00 0.00 0.00 0.01 0.01 0.01 0.00 0.00 0.00 0.00 0.00 0.00 0.00 0.00 0.00 0.00 0.00 0.00 0.00 0.00 0.01 0.03 0.06 0.03
0.00 0.00 0.00 0.00 0.00 0.00 0.00 0.00 0.00 0.01 0.02 0.01 0.01 0.00 0.00 0.01 0.01 0.00 0.00 0.00 0.02 0.01 0.03 0.01 0.00 0.00 0.00 0.00 0.00 0.00 0.00 0.00 0.00 0.00 0.00 0.00 0.00 0.00 0.00 0.00 0.01 0.02 0.02
0.00 0.00 0.00 0.00 0.00 0.00 0.06 0.08 0.05 0.03 0.00 0.00 0.00 0.01 0.04 0.03 0.00 0.01 0.02 0.02 0.01 0.01 0.01 0.03 0.00 0.00 0.00 0.00 0.00 0.00 0.00 0.00 0.00 0.00 0.00 0.00 0.00 0.00 0.00 0.00 0.00 0.00 0.01
0.00 0.00 0.00 0.00 0.00 0.01 0.06 0.03 0.02 0.00 0.00 0.00 0.00 0.01 0.02 0.00 0.04 0.06 0.00 0.01 0.03 0.01 0.01 0.00 0.00 0.00 0.00 0.00 0.00 0.00 0.00 0.00 0.00 0.00 0.00 0.00 0.00 0.00 0.00 0.00 0.00 0.01 0.04
0.00 0.00 0.00 0.00 0.00 0.00 0.01 0.01 0.00 0.00 0.00 0.00 0.00 0.01 0.00 0.00 0.02 0.03 0.01 0.00 0.01 0.00 0.00 0.00 0.00 0.00 0.00 0.00 0.00 0.00 0.00 0.00 0.00 0.00 0.00 0.00 0.00 0.00 0.00 0.00 0.00 0.00 0.01
0.00 0.00 0.00 0.00 0.00 0.01 0.02 0.02 0.03 0.03 0.01 0.00 0.00 0.01 0.01 0.01 0.02 0.03 0.03 0.01 0.01 0.00 0.00 0.00 0.00 0.00 0.00 0.00 0.00 0.00 0.00 0.00 0.00 0.00 0.00 0.00 0.00 0.00 0.00 0.00 0.00 0.00 0.00
0.00 0.00 0.00 0.00 0.00 0.01 0.03 0.00 0.04 0.01 0.00 0.00 0.00 0.00 0.01 0.01 0.01 0.01 0.01 0.00 0.00 0.00 0.00 0.00 0.00 0.00 0.00 0.00 0.00 0.00 0.00 0.00 0.00 0.00 0.00 0.00 0.00 0.00 0.00 0.00 0.00 0.00 0.00
0.00 0.00 0.00 0.00 0.00 0.01 0.02 0.01 0.02 0.01 0.00 0.00 0.00 0.00 0.00 0.00 0.00 0.00 0.00 0.00 0.00 0.00 0.00 0.00 0.00 0.00 0.00 0.00 0.00 0.00 0.00 0.00 0.00 0.00 0.00 0.00 0.00 0.00 0.00 0.00 0.00 0.00 0.00
0.00 0.00 0.00 0.00 0.00 0.00 0.00 0.00 0.01 0.02 0.00 0.00 0.00 0.00 0.00 0.00 0.00 0.00 0.00 0.00 0.00 0.00 0.00 0.00 0.00 0.00 0.00 0.00 0.00 0.00 0.00 0.00 0.00 0.00 0.00 0.00 0.00 0.00 0.00 0.00 0.00 0.00 0.00
MSLP
1013.66 1013.78 1014.32 1014.27 1014.24 1014.37 1014.60 1014.95 1015.30 1015.44 1015.68 1015.88 1015.94 1016.16 1016.21 1016.41 1016.49 1016.59 1016.71 1016.76 1016.87 1016.81 1016.92 1016.91 1017.00 1016.95 1017.04 1017.08 1017.06 1017.03 1017.09 1017.23 1017.22 1017.21 1017.06 1017.07 1017.16 1017.26 1017.32 1017.45 1017.31 1016.94 1017.86
1013.04 1013.80 1014.34 1014.35 1014.52 1014.71 1014.88 1015.33 1015.64 1015.81 1016.03 1016.18 1016.33 1016.44 1016.57 1016.70 1016.82 1016.84 1016.86 1017.02 1017.00 1017.02 1017.05 1017.11 1017.15 1017.16 1017.23 1017.23 1017.22 1017.25 1017.38 1017.44 1017.39 1017.12 1017.08 1017.12 1017.17 1017.32 1017.39 1017.49 1017.25 1017.52 1018.05
1012.72 1013.68 1014.13 1014.67 1014.84 1015.03 1015.24 1015.56 1015.89 1016.05 1016.32 1016.45 1016.62 1016.67 1016.78 1016.90 1017.00 1016.95 1017.08 1017.17 1017.15 1017.12 1017.20 1017.26 1017.35 1017.42 1017.44 1017.37 1017.38 1017.46 1017.53 1017.49 1017.39 1017.03 1016.93 1017.06 1016.82 1017.34 1017.51 1017.64 1017.77 1017.99 1018.27
1012.22 1012.93 1013.68 1014.73 1015.00 1015.30 1015.44 1015.82 1016.13 1016.28 1016.43 1016.60 1016.75 1016.86 1016.88 1017.08 1017.19 1017.23 1017.33 1017.39 1017.38 1017.40 1017.42 1017.46 1017.54 1017.59 1017.56 1017.55 1017.54 1017.59 1017.60 1017.57 1017.38 1017.05 1016.71 1016.75 1016.45 1017.61 1017.71 1017.91 1017.98 1018.24 1018.52
1012.69 1013.23 1014.41 1014.98 1015.29 1015.55 1015.69 1015.95 1016.21 1016.23 1016.50 1016.72 1016.91 1017.01 1017.10 1017.27 1017.38 1017.46 1017.58 1017.60 1017.55 1017.58 1017.65 1017.63 1017.69 1017.68 1017.69 1017.63 1017.63 1017.69 1017.62 1017.62 1017.45 1016.96 1016.09 1016.57 1017.18 1017.71 1017.98 1018.12 1018.33 1018.47 1018.73
1012.94 1013.36 1014.75 1015.14 1015.42 1015.65 1015.84 1015.97 1016.25 1016.47 1016.70 1016.90 1017.11 1017.18 1017.34 1017.53 1017.60 1017.67 1017.72 1017.67 1017.68 1017.75 1017.75 1017.75 1017.73 1017.75 1017.79 1017.76 1017.76 1017.72 1017.65 1017.54 1017.37 1016.86 1016.21 1016.63 1017.01 1017.76 1018.06 1018.23 1018.47 1018.62 1018.86
1012.85 1013.37 1014.50 1015.18 1015.46 1015.72 1015.96 1016.23 1016.44 1016.62 1016.85 1017.04 1017.21 1017.39 1017.57 1017.66 1017.72 1017.77 1017.76 1017.73 1017.79 1017.81 1017.81 1017.83 1017.79 1017.79 1017.77 1017.82 1017.85 1017.75 1017.67 1017.38 1016.93 1016.34 1016.34 1016.96 1017.12 1017.68 1018.07 1018.28 1018.59 1018.75 1018.97
1012.85 1013.06 1014.40 1015.30 1015.62 1015.85 1016.09 1016.34 1016.58 1016.78 1016.99 1017.15 1017.35 1017.50 1017.64 1017.66 1017.71 1017.77 1017.83 1017.87 1017.87 1017.87 1017.89 1017.85 1017.87 1017.88 1017.88 1017.86 1017.83 1017.77 1017.53 1017.18 1016.68 1016.63 1016.55 1016.85 1017.66 1017.82 1017.99 1018.31 1018.55 1018.90 1019.10
1012.65 1013.30 1013.95 1014.71 1015.53 1015.92 1016.21 1016.52 1016.75 1016.99 1017.12 1017.33 1017.42 1017.57 1017.64 1017.67 1017.65 1017.66 1017.75 1017.82 1017.89 1018.03 1018.08 1017.96 1018.00 1017.96 1017.92 1017.88 1017.89 1017.75 1017.39 1017.17 1016.64 1016.27 1016.67 1016.84 1017.76 1017.93 1018.11 1018.23 1018.52 1018.81 1019.14
1012.54 1013.28 1013.56 1014.23 1014.79 1015.31 1016.00 1016.58 1016.84 1017.01 1017.20 1017.37 1017.51 1017.54 1017.57 1017.52 1017.44 1017.49 1017.63 1017.79 1017.92 1018.02 1018.04 1017.92 1017.92 1017.89 1017.80 1017.70 1017.66 1017.52 1017.11 1017.01 1016.43 1016.28 1016.40 1017.08 1017.74 1017.96 1018.15 1018.40 1018.57 1018.80 1019.12
1012.80 1013.57 1013.40 1013.71 1014.41 1014.86 1015.42 1016.42 1016.84 1017.05 1017.27 1017.45 1017.45 1017.55 1017.38 1016.89 1016.94 1016.94 1017.33 1017.75 1017.91 1017.91 1017.96 1018.01 1017.99 1017.71 1017.62 1017.65 1017.50 1017.22 1016.79 1015.85 1016.07 1015.87 1016.46 1017.40 1017.83 1018.00 1018.07 1018.42 1018.77 1018.89 1019.09
1012.62 1012.72 1012.96 1013.75 1014.81 1014.81 1014.72 1016.09 1016.31 1016.47 1016.56 1016.64 1016.66 1017.04 1016.76 1016.23 1016.68 1016.72 1017.08 1017.46 1017.67 1017.81 1017.82 1017.82 1017.67 1017.38 1017.23 1016.79 1016.38 1016.57 1016.13 1016.62 1015.98 1016.05 1016.75 1017.45 1017.82 1017.97 1017.91 1018.04 1018.64 1018.90 1019.11
1011.90 1012.27 1013.43 1014.20 1014.77 1014.86 1015.35 1015.32 1015.44 1015.53 1015.64 1016.02 1016.40 1016.44 1016.27 1016.28 1016.29 1016.58 1017.07 1016.59 1016.71 1017.19 1017.20 1017.50 1017.20 1016.84 1016.96 1017.04 1016.68 1016.26 1016.49 1016.44 1016.06 1016.05 1017.02 1017.31 1017.69 1017.99 1017.93 1018.05 1018.31 1018.60 1018.88
1011.66 1012.29 1013.22 1013.99 1014.72 1014.75 1014.97 1015.08 1014.89 1014.93 1015.17 1015.33 1015.86 1016.62 1016.77 1016.56 1016.29 1016.37 1016.63 1016.61 1016.79 1016.70 1016.68 1016.90 1016.76 1017.08 1017.12 1017.30 1016.94 1016.89 1016.74 1016.34 1016.27 1016.54 1016.63 1017.32 1017.66 1017.83 1017.92 1017.97 1017.97 1017.88 1018.55
1011.34 1011.91 1012.70 1013.48 1014.38 1014.47 1015.18 1014.83 1014.72 1014.97 1015.17 1015.01 1015.50 1016.09 1016.41 1016.03 1016.47 1016.61 1016.74 1016.70 1016.75 1016.60 1016.66 1016.66 1016.77 1016.88 1017.11 1016.99 1016.81 1017.09 1016.90 1016.75 1016.63 1016.48 1016.33 1017.04 1017.38 1017.65 1017.76 1017.74 1017.94 1018.16 1018.32
1011.15 1011.80 1012.56 1013.38 1014.38 1015.08 1015.30 1015.10 1015.02 1015.05 1015.15 1015.17 1015.15 1015.52 1016.61 1016.43 1017.03 1016.60 1016.90 1016.91 1016.92 1016.77 1016.84 1016.70 1017.15 1017.32 1017.29 1016.73 1016.53 1016.90 1016.99 1016.62 1016.77 1016.85 1016.32 1016.44 1017.00 1017.27 1017.46 1017.59 1017.77 1017.98 1018.20
1011.07 1011.80 1012.46 1013.19 1013.81 1014.67 1014.94 1015.17 1015.38 1014.84 1014.98 1015.00 1015.04 1015.49 1016.08 1016.43 1016.45 1016.81 1016.61 1016.69 1016.32 1017.02 1017.22 1017.25 1017.31 1017.11 1016.70 1016.06 1016.38 1016.47 1016.42 1016.47 1016.43 1016.79 1016.49 1015.99 1016.27 1016.93 1017.20 1017.29 1017.54 1017.88 1018.09
1010.76 1011.61 1012.40 1012.61 1013.20 1014.14 1014.90 1015.06 1014.92 1014.63 1014.97 1014.81 1014.92 1015.21 1015.74 1016.21 1016.71 1016.66 1016.39 1016.36 1016.29 1016.68 1016.81 1016.88 1017.29 1017.16 1016.62 1016.37 1016.39 1016.27 1016.39 1016.44 1016.66 1016.48 1016.25 1016.45 1016.08 1016.02 1016.75 1017.17 1017.45 1017.65 1017.81
1010.52 1011.31 1012.09 1012.45 1012.71 1013.39 1014.27 1014.18 1014.47 1014.44 1014.87 1015.15 1014.80 1014.93 1015.52 1015.89 1016.26 1016.44 1016.09 1016.07 1016.49 1016.86 1016.89 1016.87 1016.98 1016.93 1016.62 1016.50 1016.28 1016.16 1016.25 1016.36 1016.45 1016.04 1016.51 1016.35 1016.58 1016.29 1015.85 1016.72 1017.06 1017.35 1017.55
1009.94 1010.89 1011.75 1012.28 1012.77 1013.19 1013.69 1014.32 1014.16 1014.14 1014.81 1014.70 1014.79 1014.80 1015.32 1015.84 1016.10 1016.25 1015.93 1016.36 1016.71 1016.81 1016.71 1017.28 1017.30 1017.11 1017.20 1016.86 1016.59 1016.28 1016.40 1016.42 1016.39 1016.41 1016.40 1016.25 1016.83 1016.34 1016.22 1016.60 1016.72 1016.67 1017.22
1009.34 1010.27 1011.04 1011.85 1012.46 1013.11 1013.58 1014.03 1014.11 1014.38 1014.08 1013.96 1013.92 1014.57 1015.27 1015.61 1015.77 1016.26 1016.19 1016.05 1016.64 1016.53 1016.89 1017.07 1017.24 1016.98 1016.68 1016.58 1016.81 1015.85 1016.07 1016.50 1016.35 1016.53 1016.38 1016.40 1016.69 1016.53 1016.83 1016.86 1016.56 1016.66 1017.30
1008.63 1009.49 1010.42 1011.22 1011.84 1012.63 1013.14 1013.68 1013.10 1013.23 1013.34 1013.09 1013.41 1013.89 1014.59 1015.00 1015.22 1015.81 1016.00 1015.67 1015.97 1016.24 1016.71 1017.19 1017.50 1017.23 1016.38 1016.84 1016.86 1016.24 1015.48 1016.24 1016.64 1016.47 1016.65 1016.84 1017.14 1016.90 1017.13 1017.21 1017.34 1017.57 1017.55
1007.68 1008.68 1009.49 1010.35 1011.07 1011.85 1012.25 1012.88 1013.14 1013.24 1013.17 1013.10 1013.11 1013.84 1014.43 1014.84 1014.92 1015.42 1015.78 1016.01 1016.22 1016.56 1016.29 1016.97 1017.19 1017.37 1016.78 1016.55 1017.15 1016.79 1015.70 1015.95 1016.10 1016.53 1016.71 1016.90 1017.36 1017.36 1017.34 1017.54 1017.71 1017.88 1017.85
1006.75 1007.97 1008.76 1009.63 1010.45 1011.12 1011.87 1012.00 1012.23 1012.75 1012.80 1012.62 1012.77 1012.78 1013.45 1014.36 1014.73 1015.09 1015.62 1015.70 1016.24 1016.43 1016.59 1016.86 1017.05 1017.46 1017.31 1016.34 1016.35 1016.81 1017.14 1017.02 1016.17 1016.34 1016.46 1016.81 1017.11 1017.33 1017.90 1017.63 1017.47 1017.80 1018.02
1005.87 1006.88 1007.88 1008.83 1009.71 1010.22 1011.08 1011.62 1011.80 1012.33 1011.88 1011.80 1012.03 1012.69 1013.56 1014.11 1014.48 1014.69 1015.22 1015.73 1016.44 1016.56 1016.81 1017.19 1017.33 1017.55 1017.17 1016.97 1016.42 1016.40 1016.85 1016.81 1017.11 1016.63 1016.27 1016.54 1016.63 1017.12 1017.59 1017.66 1017.82 1017.73 1017.84
1004.96 1005.88 1006.84 1007.88 1008.80 1009.61 1010.27 1011.16 1011.47 1011.69 1011.73 1011.56 1012.04 1012.54 1013.15 1013.72 1014.24 1014.64 1014.99 1015.55 1016.14 1016.34 1016.66 1017.04 1017.44 1017.54 1017.57 1017.39 1017.06 1016.98 1016.78 1016.54 1016.38 1016.59 1016.59 1016.72 1016.79 1016.74 1016.93 1017.24 1017.43 1017.40 1017.57
Thickness
5766 5766 5761 5761 5762 5761 5763 5759 5757 5757 5753 5752 5753 5752 5752 5749 5748 5748 5746 5746 5745 5745 5744 5744 5742 5743 5743 5743 5743 5744 5743 5741 5742 5743 5745 5745 5744 5743 5742 5741 5743 5746 5741
5775 5768 5763 5763 5763 5763 5763 5757 5755 5754 5752 5752 5752 5752 5750 5748 5746 5747 5746 5745 5746 5746 5744 5744 5743 5743 5744 5744 5744 5744 5742 5741 5742 5745 5746 5746 5746 5745 5744 5743 5745 5743 5740
5780 5773 5769 5765 5763 5763 5762 5758 5755 5755 5753 5752 5752 5752 5750 5748 5746 5748 5746 5746 5747 5747 5745 5744 5743 5743 5744 5744 5745 5744 5743 5743 5744 5748 5749 5748 5750 5747 5745 5743 5743 5742 5740
5786 5780 5775 5767 5765 5763 5761 5758 5756 5756 5755 5754 5753 5752 5751 5748 5747 5748 5747 5746 5747 5746 5744 5743 5743 5743 5744 5744 5745 5745 5744 5744 5746 5750 5752 5751 5754 5746 5745 5744 5743 5741 5741
5786 5781 5772 5768 5765 5763 5762 5760 5759 5759 5757 5755 5753 5752 5751 5749 5748 5748 5747 5747 5747 5746 5744 5744 5743 5744 5744 5745 5745 5745 5745 5746 5748 5752 5757 5754 5751 5746 5745 5744 5742 5740 5739
5786 5783 5772 5768 5767 5765 5764 5763 5760 5759 5757 5755 5752 5752 5750 5749 5748 5748 5748 5748 5747 5746 5745 5745 5745 5745 5745 5746 5745 5745 5746 5748 5749 5755 5758 5755 5752 5747 5744 5743 5742 5740 5739
5789 5785 5776 5771 5769 5767 5765 5763 5761 5759 5757 5755 5753 5751 5750 5749 5749 5749 5749 5749 5748 5747 5747 5746 5746 5747 5747 5747 5747 5747 5747 5750 5753 5758 5758 5754 5752 5748 5745 5743 5741 5740 5739
5791 5789 5779 5772 5769 5768 5766 5763 5761 5760 5757 5756 5754 5752 5750 5751 5751 5750 5750 5749 5749 5748 5748 5747 5747 5747 5747 5747 5747 5748 5750 5754 5756 5757 5757 5755 5750 5749 5746 5744 5742 5740 5738
5794 5789 5784 5778 5772 5769 5767 5764 5761 5759 5758 5756 5755 5753 5753 5753 5753 5753 5752 5751 5750 5748 5747 5747 5747 5747 5747 5748 5748 5749 5752 5754 5757 5760 5757 5755 5750 5748 5746 5745 5742 5740 5738
5797 5790 5788 5784 5780 5775 5769 5764 5762 5761 5759 5757 5756 5755 5755 5755 5756 5755 5754 5753 5751 5749 5748 5749 5748 5748 5749 5749 5749 5750 5754 5754 5758 5760 5759 5754 5750 5747 5745 5744 5742 5740 5737
5793 5789 5790 5789 5784 5780 5775 5767 5764 5761 5759 5757 5757 5756 5757 5761 5761 5760 5758 5754 5752 5751 5750 5749 5749 5750 5750 5749 5750 5752 5755 5760 5759 5762 5756 5751 5747 5745 5744 5742 5740 5739 5737
5790 5794 5796 5789 5781 5781 5782 5770 5768 5767 5765 5765 5765 5762 5763 5768 5764 5763 5760 5757 5755 5753 5752 5752 5752 5754 5754 5756 5758 5756 5758 5754 5758 5756 5752 5747 5745 5744 5745 5743 5740 5738 5737
5798 5798 5792 5787 5782 5782 5779 5777 5776 5776 5775 5772 5769 5769 5770 5770 5770 5768 5764 5765 5764 5760 5759 5756 5758 5759 5757 5755 5756 5758 5755 5755 5757 5756 5749 5747 5744 5741 5742 5743 5741 5739 5738
5799 5798 5795 5790 5783 5784 5782 5780 5782 5782 5780 5779 5775 5770 5769 5769 5772 5771 5770 5768 5765 5766 5764 5761 5762 5759 5758 5755 5756 5755 5755 5757 5756 5753 5752 5746 5743 5742 5741 5741 5744 5739 5739
5802 5802 5799 5795 5788 5787 5781 5783 5785 5783 5782 5784 5781 5776 5773 5775 5773 5772 5770 5769 5767 5768 5766 5765 5763 5762 5759 5759 5759 5756 5756 5756 5755 5755 5754 5748 5745 5743 5741 5742 5741 5740 5737
5806 5803 5802 5797 5789 5783 5782 5784 5784 5784 5784 5784 5785 5781 5773 5773 5770 5773 5771 5770 5769 5768 5767 5765 5762 5759 5758 5762 5762 5758 5756 5758 5755 5753 5755 5753 5748 5745 5743 5741 5740 5740 5736
5808 5806 5802 5799 5794 5788 5787 5785 5783 5788 5786 5786 5786 5783 5778 5775 5775 5773 5774 5772 5773 5767 5765 5763 5762 5762 5765 5768 5764 5761 5760 5758 5758 5754 5755 5757 5754 5748 5744 5743 5740 5737 5735
5812 5806 5804 5806 5801 5794 5788 5787 5788 5790 5789 5789 5789 5787 5782 5779 5774 5774 5776 5776 5775 5770 5768 5766 5762 5762 5765 5766 5763 5763 5760 5758 5756 5756 5756 5754 5755 5754 5748 5742 5739 5737 5735
5815 5810 5805 5806 5805 5800 5794 5794 5792 5792 5790 5788 5791 5790 5785 5781 5778 5775 5777 5777 5773 5769 5768 5766 5765 5764 5763 5763 5763 5764 5762 5758 5756 5756 5751 5751 5748 5750 5753 5746 5741 5738 5735
5820 5815 5810 5807 5805 5803 5799 5793 5794 5796 5789 5791 5791 5791 5786 5782 5779 5777 5779 5774 5771 5770 5770 5762 5761 5762 5758 5759 5759 5759 5758 5758 5755 5754 5751 5750 5744 5747 5748 5743 5741 5741 5736
5824 5817 5813 5808 5806 5802 5797 5792 5791 5788 5794 5797 5797 5793 5787 5783 5781 5776 5775 5775 5770 5770 5765 5763 5759 5758 5759 5761 5753 5759 5757 5754 5754 5751 5749 5748 5745 5746 5741 5740 5743 5740 5734
5826 5822 5816 5812 5810 5804 5801 5797 5803 5801 5801 5804 5800 5796 5791 5787 5783 5778 5775 5776 5773 5769 5763 5758 5753 5752 5759 5755 5747 5749 5749 5747 5746 5748 5746 5743 5740 5739 5735 5734 5731 5728 5728
5831 5826 5822 5818 5815 5811 5809 5804 5801 5801 5802 5800 5800 5794 5789 5785 5783 5778 5772 5769 5766 5763 5763 5757 5753 5749 5749 5754 5748 5745 5745 5736 5742 5744 5741 5740 5734 5733 5731 5728 5725 5722 5722
5837 5832 5827 5822 5817 5815 5810 5807 5803 5797 5793 5799 5800 5801 5796 5785 5781 5776 5770 5767 5761 5759 5757 5753 5752 5746 5745 5748 5752 5749 5744 5739 5737 5731 5738 5737 5733 5729 5722 5723 5721 5717 5715
5843 5837 5832 5826 5821 5819 5813 5809 5805 5798 5804 5806 5804 5796 5788 5783 5777 5774 5768 5763 5756 5754 5750 5746 5743 5740 5744 5743 5746 5746 5740 5740 5735 5731 5724 5727 5732 5728 5721 5720 5717 5714 5710
5848 5842 5837 5829 5823 5820 5816 5809 5805 5801 5800 5801 5796 5790 5786 5781 5776 5770 5766 5760 5754 5752 5748 5743 5738 5736 5735 5735 5737 5737 5735 5733 5733 5728 5723 5722 5719 5723 5724 5719 5716 5714 5711